Wind_Speed
15 14 15 15 15 15 14 14 14 14 14 14 14 14 14 14 14 13 13 14 15 15 14 14 13 13 13 13 12 13 13 12 12 12 12 12 11 11 11 11 10 10 10
15 15 15 15 16 15 15 15 15 15 15 15 14 14 14 13 13 13 13 13 14 14 14 13 13 13 13 13 13 13 13 13 13 12 12 12 11 12 11 11 11 11 11
15 15 16 15 16 15 16 16 15 15 14 13 13 13 13 13 13 13 14 14 14 14 13 13 13 13 13 13 14 14 14 14 13 13 12 12 11 12 12 12 12 12 12
15 15 15 16 16 15 16 15 15 14 14 14 13 13 13 13 13 14 14 14 13 13 13 12 12 13 13 13 13 14 13 13 13 13 13 13 13 13 13 13 13 13 13
15 15 15 16 16 16 15 15 15 15 14 13 13 14 13 14 14 14 14 14 13 13 13 12 13 13 13 13 13 13 13 14 14 14 13 13 14 14 14 14 14 14 14
16 16 16 16 16 16 16 15 15 14 14 13 13 14 14 14 14 13 13 13 13 13 13 13 13 13 13 13 13 13 13 13 14 14 13 14 14 15 15 14 14 14 14
16 17 16 16 16 16 15 14 14 14 14 14 14 14 14 13 13 13 14 14 14 13 13 13 13 13 13 13 14 13 13 13 13 13 14 14 14 14 15 15 15 14 14
16 16 16 16 15 15 15 14 14 14 14 14 14 15 14 14 14 14 14 14 14 14 14 13 13 13 13 13 14 14 13 13 13 14 14 14 14 14 15 15 15 15 15
16 16 16 15 15 15 15 15 15 15 15 15 16 16 15 14 15 15 15 15 14 14 14 13 13 14 14 14 14 14 13 14 14 15 15 15 15 14 15 15 16 16 16
15 15 15 15 15 14 14 15 15 15 15 15 16 16 15 15 15 15 15 15 15 15 15 15 15 15 15 15 16 15 15 15 15 15 15 15 15 14 15 15 15 16 16
16 16 16 16 16 15 15 15 15 15 15 15 15 16 16 16 15 15 15 15 15 16 16 16 15 15 16 16 15 15 16 16 16 16 16 16 15 15 15 15 15 15 15
17 17 17 17 17 16 15 15 15 15 15 15 16 16 17 16 16 16 16 16 15 16 16 16 15 15 16 16 16 15 16 16 16 16 17 16 16 15 15 15 15 15 15
19 18 18 18 18 17 16 16 15 15 15 16 16 16 17 17 17 17 17 17 17 17 16 16 16 16 16 16 16 16 16 16 16 17 17 16 16 15 15 16 16 15 15
19 19 19 18 18 17 17 17 16 16 16 16 16 16 17 17 17 17 17 17 17 16 16 16 16 16 16 17 17 16 16 16 16 16 16 15 16 16 15 15 15 15 15
19 19 18 18 18 17 17 17 16 16 16 16 16 15 16 16 16 17 17 16 16 16 16 16 16 17 17 17 17 16 16 16 16 16 15 15 16 16 15 15 15 14 15
19 18 18 18 18 17 17 17 16 16 15 15 16 16 15 16 16 16 15 15 16 16 16 16 16 16 17 17 17 16 15 14 15 15 15 16 16 16 16 16 16 15 16
19 18 18 18 17 17 17 17 17 16 16 16 16 15 15 16 16 15 15 15 15 15 16 16 16 16 17 16 16 16 17 16 16 16 16 16 16 17 17 17 17 17 16
20 19 18 18 17 16 16 17 17 17 17 17 17 16 16 15 14 14 14 15 16 16 16 16 16 16 16 16 16 17 17 17 16 16 17 17 17 17 16 16 16 15 16
20 19 19 18 17 17 17 17 17 17 17 17 17 16 15 15 14 14 14 15 16 16 16 16 15 16 16 15 16 16 16 16 17 17 17 17 17 17 16 16 16 16 16
20 19 18 18 18 18 18 18 17 17 17 17 17 16 16 16 15 14 14 15 16 16 15 15 15 16 16 16 16 16 16 16 17 17 17 16 17 17 17 18 17 17 17
20 19 19 18 18 18 18 18 17 17 17 16 16 17 17 16 15 15 15 15 16 16 15 15 15 15 15 15 15 16 16 16 16 17 17 17 17 18 18 17 17 17 18
21 20 20 19 18 18 18 18 18 17 17 17 17 17 17 17 17 17 16 16 16 15 16 16 16 15 15 15 16 17 17 17 17 17 18 18 19 18 18 18 18 18 19
21 21 21 21 20 20 19 19 18 18 18 18 18 18 19 19 19 18 18 17 17 17 17 17 18 17 17 16 17 17 17 18 18 18 18 19 19 19 19 19 19 20 20
23 22 22 22 21 21 20 20 19 19 19 19 19 19 20 20 20 20 20 19 19 19 19 19 19 19 18 18 18 18 18 18 18 19 19 19 20 19 19 20 20 21 21
24 24 24 23 22 22 21 21 21 21 20 20 20 20 21 20 20 21 21 21 21 21 21 21 20 20 20 20 20 20 20 20 20 20 20 19 20 20 21 21 22 23 23
25 25 24 24 23 23 23 23 22 22 22 22 21 21 21 21 21 21 21 21 22 22 22 22 22 21 22 22 22 22 22 22 21 21 21 21 21 21 22 23 24 24 25
Wind_Direction
277 277 280 282 285 284 281 280 278 275 276 275 273 271 273 273 271 273 274 275 277 277 278 277 277 278 280 281 286 291 290 290 291 292 290 291 293 294 295 299 299 300 299
278 278 279 281 284 282 281 280 278 276 273 271 272 271 270 270 270 271 272 273 276 277 278 278 277 277 278 282 285 286 287 287 288 291 290 290 291 292 292 295 296 296 297
282 281 281 282 282 281 280 281 281 278 275 270 273 269 267 266 267 272 272 274 276 276 278 276 275 277 278 281 283 284 284 285 286 287 290 291 290 290 291 293 294 295 294
281 281 281 282 282 281 279 279 281 279 277 274 271 268 270 266 266 270 272 275 278 280 280 279 278 278 280 283 284 284 283 285 286 286 286 287 287 289 290 292 293 292 290
280 281 282 282 281 281 280 279 279 278 277 272 269 270 271 270 266 267 270 272 276 279 279 276 277 277 279 281 283 282 283 285 285 284 284 285 285 286 289 292 291 289 288
281 280 282 282 281 281 280 278 278 277 275 270 268 269 268 269 269 269 272 274 274 276 279 278 277 279 280 281 283 283 284 286 285 285 285 285 286 287 288 288 288 287 287
284 284 284 285 283 280 278 277 276 276 275 271 268 271 269 269 274 273 272 274 274 274 275 277 278 279 280 281 284 283 284 285 286 286 287 287 287 287 287 286 286 286 285
286 285 285 284 282 278 274 273 273 273 271 271 271 271 270 272 275 274 274 276 276 275 275 275 278 278 281 283 285 284 283 282 284 286 289 288 289 286 287 286 286 285 284
286 285 283 282 281 276 272 271 271 271 270 271 271 270 267 271 274 274 274 275 276 276 279 279 277 278 279 282 284 285 283 283 285 286 288 289 289 288 288 286 286 285 283
285 283 282 279 280 277 274 271 271 271 270 270 269 269 269 271 271 273 274 275 274 275 277 278 280 280 278 281 282 280 281 281 284 287 287 287 287 290 289 288 286 287 285
286 285 283 281 280 280 277 271 271 271 270 268 268 269 271 271 271 273 271 273 275 276 276 277 280 281 280 282 281 279 280 282 283 284 285 285 286 287 288 290 290 287 286
285 283 281 280 278 278 275 272 273 272 270 269 268 271 271 270 272 273 271 272 275 276 275 274 277 280 282 280 279 279 279 281 281 283 284 284 285 285 286 289 290 288 287
283 284 282 279 278 275 272 271 271 272 272 270 269 271 271 271 273 273 272 270 274 274 274 272 273 277 279 278 279 279 280 284 285 284 284 283 285 285 286 288 287 288 287
283 283 280 278 276 273 270 269 269 270 271 270 270 272 270 271 272 273 273 273 273 272 271 271 273 277 276 276 279 282 285 287 284 285 286 283 283 284 285 286 286 288 288
284 283 281 278 275 272 269 267 267 269 272 270 271 272 270 271 272 274 275 273 274 272 271 270 272 276 277 278 280 282 284 283 285 286 286 286 287 286 287 287 286 286 288
285 285 282 278 274 271 268 266 267 268 270 269 271 271 271 272 272 275 274 275 275 273 273 272 273 275 278 277 279 280 283 285 287 288 288 286 285 284 283 284 284 283 284
285 285 283 279 272 270 268 267 268 269 268 270 272 271 272 271 271 272 271 274 274 272 272 275 275 275 276 277 279 280 283 283 287 286 286 285 285 283 281 281 284 283 283
286 284 282 278 272 270 269 269 271 270 269 270 272 271 273 269 270 270 271 272 271 270 272 275 274 273 274 277 278 280 281 283 285 286 284 287 284 280 277 279 282 283 284
282 282 280 274 270 270 269 270 271 270 269 270 270 268 267 267 270 272 271 272 272 271 272 273 274 275 277 278 279 281 283 283 286 288 287 287 286 285 279 277 278 280 283
280 279 276 273 270 270 270 271 271 269 268 268 267 263 264 269 270 270 271 273 273 271 271 271 274 275 276 278 280 283 287 287 288 289 289 288 287 286 284 281 279 279 280
274 275 274 272 270 270 271 271 270 269 266 265 264 261 263 266 267 268 272 275 274 271 271 271 276 276 277 278 280 284 286 288 289 290 289 288 287 285 284 285 283 280 279
271 272 272 270 268 268 269 269 268 266 265 265 263 261 262 263 266 269 271 273 274 273 272 273 277 276 276 279 282 283 285 288 289 290 290 288 287 284 282 284 283 282 283
270 270 270 268 268 268 266 267 268 266 265 266 264 261 262 263 265 268 269 270 273 273 273 275 276 275 277 280 283 284 286 289 288 288 289 288 286 283 282 283 282 282 284
269 270 268 267 267 266 266 267 268 267 266 265 265 263 263 263 264 265 266 267 270 272 272 273 274 275 276 279 283 285 287 289 288 288 289 289 287 285 284 284 284 283 284
268 269 268 266 265 266 266 266 266 266 266 267 266 264 262 263 264 265 267 268 269 270 271 271 271 273 275 277 280 283 286 287 287 287 289 290 287 286 286 284 284 284 285
267 267 266 265 263 264 266 266 265 265 265 267 266 266 264 264 265 265 267 269 270 269 269 269 270 273 276 277 279 281 283 284 285 287 289 290 288 287 287 286 283 283 284
Height
5861 5861 5861 5861 5861 5861 5860 5860 5860 5860 5861 5861 5862 5862 5862 5863 5863 5863 5864 5864 5865 5865 5865 5865 5864 5865 5865 5865 5865 5864 5864 5863 5863 5862 5862 5862 5861 5860 5860 5859 5859 5858 5858
5857 5857 5857 5858 5857 5857 5857 5857 5857 5857 5857 5858 5858 5859 5859 5860 5860 5861 5861 5861 5862 5862 5862 5862 5862 5862 5862 5862 5862 5861 5861 5861 5860 5860 5859 5859 5859 5858 5857 5857 5856 5856 5855
5854 5854 5854 5854 5854 5854 5854 5854 5854 5854 5854 5855 5855 5856 5856 5857 5857 5858 5858 5858 5859 5859 5859 5859 5859 5859 5859 5859 5859 5858 5858 5858 5857 5857 5857 5856 5856 5856 5855 5854 5854 5853 5852
5851 5850 5850 5850 5850 5850 5850 5850 5851 5851 5851 5852 5852 5853 5853 5854 5854 5855 5855 5855 5855 5856 5856 5856 5856 5856 5856 5856 5855 5855 5855 5855 5854 5854 5853 5853 5853 5853 5852 5852 5851 5850 5849
5847 5847 5847 5847 5847 5847 5847 5847 5847 5848 5848 5849 5849 5849 5850 5850 5851 5852 5852 5852 5852 5852 5853 5853 5853 5853 5853 5852 5852 5852 5852 5851 5851 5851 5850 5850 5850 5849 5849 5848 5848 5847 5846
5844 5844 5844 5844 5844 5844 5844 5844 5844 5844 5844 5845 5846 5846 5846 5847 5847 5848 5849 5849 5849 5849 5849 5849 5850 5850 5849 5849 5849 5848 5848 5848 5848 5847 5847 5847 5847 5846 5845 5845 5844 5843 5843
5841 5841 5841 5840 5840 5840 5840 5840 5841 5841 5841 5842 5842 5843 5843 5844 5844 5845 5845 5846 5846 5846 5846 5846 5846 5846 5846 5846 5846 5845 5845 5845 5844 5844 5844 5843 5843 5842 5842 5841 5840 5840 5839
5837 5837 5837 5837 5836 5837 5837 5837 5837 5837 5838 5838 5839 5839 5840 5841 5841 5842 5842 5842 5843 5843 5843 5843 5843 5843 5843 5843 5842 5842 5841 5841 5841 5841 5840 5840 5839 5839 5838 5837 5836 5836 5835
5833 5833 5833 5833 5833 5833 5833 5833 5834 5834 5835 5835 5835 5836 5837 5837 5838 5838 5838 5839 5839 5839 5839 5839 5839 5840 5839 5839 5839 5839 5838 5838 5837 5837 5836 5836 5836 5835 5834 5833 5832 5832 5831
5830 5829 5829 5829 5829 5828 5828 5829 5830 5831 5831 5832 5832 5832 5833 5833 5834 5834 5835 5835 5835 5835 5836 5836 5836 5836 5836 5836 5835 5835 5835 5834 5834 5833 5833 5832 5832 5831 5830 5829 5828 5827 5827
5826 5825 5825 5825 5825 5825 5825 5825 5826 5827 5827 5828 5828 5829 5829 5829 5830 5831 5831 5831 5831 5831 5832 5832 5832 5832 5832 5832 5831 5831 5831 5830 5830 5829 5829 5828 5828 5827 5826 5825 5824 5823 5823
5822 5821 5821 5821 5821 5821 5821 5822 5822 5823 5823 5824 5824 5825 5825 5826 5826 5827 5827 5827 5827 5827 5828 5828 5828 5828 5828 5828 5827 5827 5827 5826 5826 5825 5825 5824 5823 5823 5822 5822 5821 5820 5819
5817 5817 5817 5816 5817 5817 5817 5817 5818 5819 5819 5820 5820 5821 5821 5822 5822 5822 5823 5823 5823 5823 5824 5824 5824 5824 5824 5824 5823 5823 5822 5822 5822 5821 5820 5820 5819 5819 5818 5817 5817 5816 5815
5812 5812 5812 5811 5812 5812 5813 5813 5814 5815 5815 5816 5816 5817 5817 5817 5818 5818 5818 5818 5819 5819 5819 5819 5820 5820 5820 5820 5819 5819 5818 5818 5817 5817 5816 5815 5815 5814 5814 5813 5812 5812 5811
5808 5807 5807 5807 5807 5808 5808 5809 5810 5811 5811 5812 5812 5812 5812 5813 5813 5813 5814 5814 5814 5815 5815 5815 5816 5816 5816 5815 5815 5815 5814 5814 5813 5812 5812 5811 5810 5810 5810 5809 5808 5808 5807
5803 5803 5802 5802 5802 5803 5804 5805 5806 5806 5807 5807 5808 5808 5808 5808 5809 5809 5809 5810 5810 5810 5811 5811 5811 5811 5811 5811 5810 5810 5810 5809 5809 5808 5808 5807 5806 5806 5805 5804 5804 5804 5803
5799 5798 5798 5797 5798 5798 5799 5800 5801 5802 5802 5803 5803 5803 5804 5804 5804 5805 5805 5805 5806 5806 5807 5807 5807 5807 5807 5806 5806 5806 5806 5805 5805 5804 5804 5803 5802 5801 5801 5800 5800 5799 5799
5794 5793 5793 5793 5793 5794 5794 5795 5796 5797 5798 5798 5799 5799 5799 5800 5800 5800 5801 5801 5802 5802 5802 5802 5803 5803 5803 5802 5802 5802 5801 5801 5801 5800 5799 5798 5797 5797 5796 5796 5795 5795 5794
5789 5788 5788 5788 5789 5789 5790 5790 5791 5792 5793 5793 5794 5795 5795 5795 5796 5796 5797 5797 5797 5798 5798 5798 5798 5798 5798 5798 5798 5798 5797 5797 5796 5795 5795 5794 5793 5792 5792 5791 5791 5791 5790
5783 5783 5783 5784 5784 5785 5785 5785 5786 5787 5788 5788 5789 5790 5790 5791 5792 5792 5792 5793 5793 5794 5794 5794 5794 5794 5794 5794 5794 5793 5793 5792 5791 5791 5790 5789 5788 5788 5787 5787 5786 5786 5786
5778 5778 5778 5779 5779 5780 5780 5780 5781 5782 5783 5783 5784 5785 5786 5786 5787 5788 5788 5788 5789 5789 5789 5790 5790 5790 5790 5789 5789 5789 5788 5787 5787 5786 5785 5784 5784 5783 5782 5782 5781 5781 5780
5773 5773 5773 5774 5774 5774 5775 5776 5776 5777 5777 5778 5779 5780 5781 5782 5782 5783 5784 5784 5784 5785 5785 5785 5785 5785 5785 5785 5785 5784 5784 5783 5782 5781 5781 5780 5779 5778 5777 5777 5776 5776 5775
5767 5767 5767 5768 5768 5769 5770 5770 5771 5772 5772 5773 5773 5774 5775 5776 5777 5778 5779 5779 5780 5780 5780 5780 5781 5781 5780 5780 5780 5779 5779 5778 5777 5777 5776 5775 5774 5773 5772 5772 5771 5771 5770
5761 5761 5761 5762 5763 5763 5764 5765 5765 5766 5767 5767 5768 5769 5770 5770 5771 5772 5773 5774 5774 5774 5775 5775 5775 5775 5775 5775 5775 5774 5774 5773 5772 5771 5770 5769 5768 5768 5767 5766 5765 5764 5764
5753 5754 5754 5755 5756 5757 5758 5759 5759 5760 5761 5761 5762 5763 5764 5764 5765 5766 5767 5768 5768 5768 5769 5769 5769 5770 5770 5770 5770 5769 5768 5768 5767 5766 5765 5764 5763 5762 5761 5760 5759 5758 5757
5746 5747 5748 5748 5750 5750 5751 5752 5753 5753 5754 5755 5756 5756 5757 5758 5759 5760 5760 5761 5761 5762 5762 5763 5763 5763 5764 5764 5763 5763 5762 5761 5761 5760 5759 5758 5757 5756 5755 5754 5753 5752 5751